period_start,C,m1,H,J0,J1,J2,J3,J4,J5,JA,JB,JC,JD,JJ,JK,JN,#
2015-10-15 00:04:16,0.01,2.40,0.00,20.48,26.22,29.90,14.84,47.91,1019.04,2039.07,2744.98,2616.98,2844.02,600.42,603.02,55.96,0000 0000 0000 0000 000000
2015-10-15 00:09:16,0.06,2.40,0.00,20.46,26.22,29.88,14.85,48.09,1019.04,2039.25,2744.28,2616.42,2843.86,600.39,603.03,56.01,0000 0000 0000 0000 000000
2015-10-15 00:14:17,0.03,2.41,0.00,20.45,26.22,29.85,14.83,48.07,1019.06,2039.19,2743.55,2616.00,2843.10,600.15,602.70,56.06,0000 0000 0000 0000 000000
2015-10-15 00:19:19,0.03,2.41,0.00,20.46,26.22,29.91,14.87,48.05,1019.06,2039.20,2743.00,2615.62,2842.87,600.08,602.53,56.11,0000 0000 0000 0000 000000
2015-10-15 00:24:20,0.04,2.41,0.00,20.47,26.22,29.86,14.69,47.83,1019.07,2039.17,2742.22,2614.99,2842.06,599.76,602.49,56.16,0000 0000 0000 0000 000000
2015-10-15 00:29:21,0.06,2.41,0.00,20.47,26.22,29.85,14.86,47.95,1019.07,2039.15,2741.34,2614.45,2841.58,600.22,602.72,56.21,0000 0000 0000 0000 000000
2015-10-15 00:34:23,0.02,2.41,0.00,20.49,26.22,29.85,14.81,48.00,1019.06,2039.15,2740.69,2614.00,2841.01,600.08,602.51,56.26,0000 0000 0000 0000 000000
2015-10-15 00:39:24,0.05,2.42,0.00,20.48,26.22,29.87,14.85,47.98,1019.06,2039.11,2739.90,2613.45,2840.42,600.33,602.85,56.31,0000 0000 0000 0000 000000
2015-10-15 00:44:25,0.02,2.42,0.00,20.47,26.22,29.88,14.69,47.98,1019.06,2039.09,2739.06,2613.00,2839.99,600.19,602.89,56.36,0000 0000 0000 0000 000000
2015-10-15 00:49:27,0.06,2.42,0.00,20.48,26.21,29.89,14.87,47.97,1019.06,2039.12,2738.42,2612.62,2839.41,600.34,602.96,56.42,0000 0000 0000 0000 000000
2015-10-15 00:54:28,0.03,2.42,0.00,20.49,26.21,29.87,14.78,48.00,1019.06,2039.20,2737.83,2612.02,2839.00,600.04,602.64,56.47,0000 0000 0000 0000 000000
2015-10-15 00:59:30,0.04,2.43,0.00,20.49,26.20,29.87,14.80,48.00,1019.06,2039.24,2737.05,2611.82,2838.46,600.01,602.48,56.52,0000 0000 0000 0000 000000
2015-10-15 01:04:31,0.04,2.43,0.00,20.52,26.20,29.89,14.85,48.05,1019.04,2039.20,2736.37,2611.07,2838.00,600.36,602.84,56.57,0000 0000 0000 0000 000000
2015-10-15 01:09:32,0.03,2.43,0.00,20.50,26.20,29.85,14.71,47.91,1019.04,2039.28,2735.95,2610.96,2837.53,599.71,602.28,56.62,0000 0000 0000 0000 000000
2015-10-15 01:14:33,0.08,2.43,0.00,20.48,26.20,29.92,14.82,48.06,1019.06,2039.49,2735.13,2610.30,2837.01,599.96,602.47,56.67,0000 0000 0000 0000 000000
2015-10-15 01:19:35,0.02,2.43,0.00,20.49,26.20,29.91,14.81,47.88,1019.06,2039.54,2734.48,2609.99,2836.65,600.12,602.55,56.72,0000 0000 0000 0000 000000
2015-10-15 01:24:36,0.03,2.44,0.00,20.49,26.20,29.87,14.73,47.99,1019.06,2039.24,2733.79,2609.30,2836.01,599.80,602.33,56.77,0000 0000 0000 0000 000000
2015-10-15 01:29:37,0.04,2.44,0.00,20.50,26.20,29.88,14.86,48.02,1019.05,2039.25,2733.03,2609.00,2835.47,600.11,602.60,56.82,0000 0000 0000 0000 000000
2015-10-15 01:34:38,0.03,2.44,0.00,20.51,26.20,29.88,14.82,48.05,1019.03,2039.26,2732.38,2608.69,2835.01,599.97,602.35,56.87,0000 0000 0000 0000 000000
2015-10-15 01:39:39,0.04,2.44,0.00,20.49,26.20,29.89,14.83,48.01,1019.03,2039.29,2731.93,2608.02,2834.62,600.02,602.50,56.92,0000 0000 0000 0000 000000
2015-10-15 01:44:41,0.03,2.44,0.00,20.48,26.20,29.92,14.76,48.02,1019.02,2039.30,2731.12,2607.87,2834.03,599.89,602.53,56.97,0000 0000 0000 0000 000000
2015-10-15 01:49:42,0.04,2.45,0.00,20.49,26.20,29.87,14.79,47.97,1019.02,2039.33,2730.58,2607.12,2833.74,599.65,602.18,57.02,0000 0000 0000 0000 000000
2015-10-15 01:54:43,0.02,2.45,0.00,20.51,26.20,29.90,14.82,48.02,1019.00,2039.23,2729.89,2606.97,2833.05,600.35,602.90,57.07,0000 0000 0000 0000 000000
2015-10-15 01:59:44,0.04,2.45,0.00,20.52,26.21,29.89,14.84,48.07,1018.90,2039.17,2729.13,2606.27,2832.77,600.16,602.68,57.12,0000 0000 0000 0000 000000
2015-10-15 02:04:46,0.03,2.45,0.00,20.52,26.22,29.90,14.81,48.07,1018.89,2039.16,2728.70,2606.00,2832.09,599.83,602.28,57.17,0000 0000 0000 0000 000000
2015-10-15 02:09:47,0.04,2.45,0.00,20.52,26.22,29.90,14.83,48.13,1018.90,2039.12,2728.02,2605.53,2831.90,600.10,602.52,57.22,0000 0000 0000 0000 000000
2015-10-15 02:14:49,0.05,2.45,0.00,20.54,26.22,29.90,14.71,48.17,1018.93,2039.15,2727.37,2605.02,2831.19,599.85,602.28,57.27,0000 0000 0000 0000 000000
2015-10-15 02:19:50,0.01,2.46,0.00,20.54,26.22,29.91,14.82,48.24,1018.78,2039.15,2726.81,2604.85,2830.94,600.14,602.42,57.33,0000 0000 0000 0000 000000
2015-10-15 02:24:51,0.06,2.46,0.00,20.56,26.22,29.91,14.79,48.14,1018.75,2039.12,2726.04,2604.09,2830.16,599.80,602.06,57.38,0000 0000 0000 0000 000000
2015-10-15 02:29:53,0.02,2.46,0.00,20.57,26.22,29.92,14.77,48.26,1018.84,2039.13,2725.37,2603.97,2829.97,600.03,602.24,57.43,0000 0000 0000 0000 000000
2015-10-15 02:34:54,0.05,2.46,0.00,20.57,26.22,29.91,14.83,48.33,1018.86,2039.10,2724.87,2603.24,2829.22,599.97,602.21,57.48,0000 0000 0000 0000 000000
2015-10-15 02:39:55,0.02,2.46,0.00,20.57,26.22,29.90,14.75,48.38,1018.83,2039.06,2724.06,2602.98,2828.95,599.88,602.15,57.53,0000 0000 0000 0000 000000
2015-10-15 02:44:56,0.06,2.47,0.00,20.57,26.22,29.90,14.75,48.39,1018.78,2039.06,2723.43,2602.37,2828.19,600.23,602.48,57.58,0000 0000 0000 0000 000000
2015-10-15 02:49:57,0.01,2.47,0.00,20.57,26.23,29.93,14.78,48.45,1018.86,2039.10,2722.80,2601.99,2827.91,599.95,602.36,57.63,0000 0000 0000 0000 000000
2015-10-15 02:54:59,0.05,2.47,0.00,20.59,26.23,29.95,14.80,48.38,1018.94,2039.04,2722.03,2601.38,2827.11,600.01,602.35,57.68,0000 0000 0000 0000 000000
2015-10-15 03:00:00,0.03,2.47,0.00,20.59,26.24,29.92,14.84,48.52,1019.02,2039.04,2721.29,2601.00,2826.83,600.15,602.53,57.73,0000 0000 0000 0000 000000
2015-10-15 03:05:01,0.05,2.47,0.00,20.59,26.25,29.92,14.81,48.35,1019.05,2039.04,2720.69,2600.49,2826.06,600.01,602.37,57.78,0000 0000 0000 0000 000000
2015-10-15 03:10:02,0.02,2.48,0.00,20.58,26.25,29.94,14.80,48.23,1019.06,2039.03,2720.02,2600.01,2825.85,599.93,602.50,57.83,0000 0000 0000 0000 000000
2015-10-15 03:15:03,0.04,2.48,0.00,20.59,26.25,29.99,14.80,48.37,1019.06,2039.01,2719.45,2599.75,2825.11,599.75,602.08,57.88,0000 0000 0000 0000 000000
2015-10-15 03:20:04,0.04,2.48,0.00,20.60,26.25,29.94,14.85,48.42,1019.06,2039.01,2718.69,2599.04,2824.80,600.25,602.47,57.93,0000 0000 0000 0000 000000
2015-10-15 03:25:06,0.02,2.48,0.00,20.58,26.25,29.93,14.80,48.41,1019.06,2039.01,2718.00,2598.91,2824.07,600.12,602.56,57.98,0000 0000 0000 0000 000000
2015-10-15 03:30:08,0.05,2.48,0.00,20.56,26.25,29.94,14.80,48.41,1019.06,2039.01,2717.20,2598.11,2823.88,599.66,601.95,58.03,0000 0000 0000 0000 000000
2015-10-15 03:35:09,0.03,2.49,0.00,20.57,26.25,29.96,14.83,48.11,1019.06,2039.00,2716.72,2597.97,2823.11,599.99,602.34,58.08,0000 0000 0000 0000 000000
2015-10-15 03:40:10,0.04,2.49,0.00,20.57,26.25,29.98,14.79,48.08,1019.06,2039.02,2716.02,2597.30,2822.92,599.93,602.24,58.13,0000 0000 0000 0000 000000
2015-10-15 03:45:11,0.03,2.49,0.00,20.58,26.25,29.98,14.77,48.21,1019.06,2039.01,2715.37,2597.00,2822.15,600.06,602.52,58.18,0000 0000 0000 0000 000000
2015-10-15 03:50:13,0.04,2.49,0.00,20.59,26.25,29.92,14.94,48.20,1019.06,2039.01,2714.70,2596.53,2821.95,600.28,602.71,58.23,0000 0000 0000 0000 000000
2015-10-15 03:55:14,0.04,2.49,0.00,20.58,26.25,29.92,14.75,48.05,1019.06,2039.01,2714.02,2596.01,2821.15,599.81,602.12,58.29,0000 0000 0000 0000 000000
2015-10-15 04:00:15,0.02,2.50,0.00,20.57,26.26,29.94,14.70,48.01,1019.06,2039.01,2713.46,2595.88,2820.98,599.52,602.02,58.34,0000 0000 0000 0000 000000
2015-10-15 04:05:16,0.04,2.50,0.00,20.58,26.27,29.93,14.82,47.88,1019.06,2039.02,2712.99,2595.13,2820.38,600.15,602.64,58.39,0000 0000 0000 0000 000000
2015-10-15 04:10:18,0.02,2.50,0.00,20.59,26.27,29.97,14.63,47.93,1019.06,2039.01,2712.32,2595.00,2820.01,599.69,602.16,58.44,0000 0000 0000 0000 000000
2015-10-15 04:15:19,0.03,2.50,0.00,20.62,26.27,29.97,14.78,47.90,1019.06,2039.01,2711.93,2594.66,2819.79,599.94,602.17,58.49,0000 0000 0000 0000 000000
2015-10-15 04:20:20,0.04,2.50,0.00,20.64,26.27,29.97,14.83,47.88,1019.06,2039.01,2711.24,2594.03,2819.06,599.98,602.19,58.54,0000 0000 0000 0000 000000
2015-10-15 04:25:21,0.01,2.50,0.00,20.66,26.27,29.93,14.77,47.88,1019.06,2039.01,2710.70,2593.96,2818.97,599.98,602.37,58.59,0000 0000 0000 0000 000000
2015-10-15 04:30:23,0.05,2.51,0.00,20.68,26.27,29.92,14.77,47.91,1019.06,2039.00,2710.03,2593.29,2818.25,600.00,602.11,58.64,0000 0000 0000 0000 000000
2015-10-15 04:35:24,0.01,2.51,0.00,20.70,26.27,29.93,14.77,48.13,1019.06,2039.00,2709.66,2593.00,2818.00,600.04,602.18,58.69,0000 0000 0000 0000 000000
2015-10-15 04:40:25,0.02,2.51,0.00,20.72,26.29,29.90,14.87,48.10,1019.06,2039.00,2709.02,2592.85,2817.54,600.25,602.33,58.74,0000 0000 0000 0000 000000
2015-10-15 04:45:26,0.05,2.51,0.00,20.73,26.30,29.85,14.83,48.05,1019.06,2039.00,2708.51,2592.08,2817.03,600.27,602.38,58.79,0000 0000 0000 0000 000000
2015-10-15 04:50:27,0.02,2.51,0.00,20.74,26.30,29.92,14.79,48.15,1019.06,2039.00,2707.93,2591.94,2816.63,599.99,602.00,58.84,0000 0000 0000 0000 000000
2015-10-15 04:55:29,0.05,2.52,0.00,20.72,26.30,29.91,14.77,48.08,1019.06,2039.00,2707.10,2591.15,2816.02,600.14,602.32,58.89,0000 0000 0000 0000 000000
2015-10-15 05:00:30,0.03,2.52,0.00,20.72,26.32,29.94,14.74,48.23,1019.06,2039.00,2706.50,2590.98,2815.75,599.99,602.13,58.94,0000 0000 0000 0000 000000
2015-10-15 05:05:31,0.05,2.52,0.00,20.72,26.32,29.96,14.75,48.13,1019.06,2039.00,2705.94,2590.25,2815.04,600.00,602.13,58.99,0000 0000 0000 0000 000000
2015-10-15 05:10:32,0.02,2.52,0.00,20.72,26.32,29.99,14.75,48.03,1019.06,2039.00,2705.14,2590.00,2814.84,599.84,601.82,59.04,0000 0000 0000 0000 000000
2015-10-15 05:15:34,0.05,2.52,0.00,20.73,26.32,29.97,14.81,48.17,1019.06,2039.00,2704.75,2589.56,2814.06,600.11,602.19,59.09,0000 0000 0000 0000 000000
2015-10-15 05:20:35,0.02,2.53,0.00,20.74,26.34,29.96,14.71,48.11,1019.06,2038.99,2704.03,2589.02,2813.93,599.78,601.82,59.14,0000 0000 0000 0000 000000
2015-10-15 05:25:36,0.04,2.53,0.00,20.74,26.35,29.98,14.74,48.09,1019.06,2038.99,2703.33,2588.81,2813.10,599.60,601.65,59.19,0000 0000 0000 0000 000000
2015-10-15 05:30:37,0.03,2.53,0.00,20.77,26.35,29.97,14.62,48.15,1019.06,2038.99,2702.79,2588.07,2812.87,599.46,601.58,59.25,0000 0000 0000 0000 000000
2015-10-15 05:35:38,0.04,2.53,0.00,20.75,26.35,29.98,14.91,48.20,1019.06,2038.98,2701.98,2587.71,2812.09,600.42,602.37,59.30,0000 0000 0000 0000 000000
2015-10-15 05:40:40,0.04,2.53,0.00,20.72,26.35,30.01,14.74,48.15,1019.06,2038.99,2701.13,2587.03,2811.70,599.93,602.07,59.35,0000 0000 0000 0000 000000
2015-10-15 05:45:41,0.03,2.54,0.00,20.73,26.36,30.03,14.74,48.18,1019.06,2038.98,2700.56,2586.85,2811.04,600.00,601.98,59.40,0000 0000 0000 0000 000000
2015-10-15 05:50:42,0.03,2.54,0.00,20.74,26.37,30.03,14.79,48.16,1019.06,2038.97,2699.95,2586.11,2810.80,600.10,602.15,59.45,0000 0000 0000 0000 000000
2015-10-15 05:55:43,0.03,2.54,0.00,20.76,26.37,30.04,14.77,48.24,1019.06,2038.97,2699.13,2585.94,2810.05,599.87,602.03,59.50,0000 0000 0000 0000 000000
2015-10-15 06:00:44,0.05,2.54,0.00,20.73,26.37,30.07,14.78,48.23,1019.06,2038.98,2698.64,2585.22,2809.85,599.96,602.15,59.55,0000 0000 0000 0000 000000
2015-10-15 06:05:46,0.02,2.54,0.00,20.72,26.37,30.05,14.73,48.33,1019.06,2038.97,2698.02,2585.00,2809.10,600.24,602.32,59.60,0000 0000 0000 0000 000000
2015-10-15 06:10:47,0.05,2.55,0.00,20.72,26.37,30.08,14.81,48.28,1019.06,2038.95,2697.38,2584.60,2808.89,600.03,602.13,59.65,0000 0000 0000 0000 000000
2015-10-15 06:15:48,0.02,2.55,0.00,20.72,26.37,30.08,14.85,48.23,1019.06,2038.85,2696.81,2584.02,2808.09,599.80,601.80,59.70,0000 0000 0000 0000 000000
2015-10-15 06:20:50,0.03,2.55,0.00,20.74,26.39,30.07,14.74,48.33,1019.06,2038.81,2696.06,2583.87,2807.99,599.76,601.80,59.75,0000 0000 0000 0000 000000
2015-10-15 06:25:51,0.04,2.55,0.00,20.73,26.39,30.09,14.68,48.22,1019.06,2038.79,2695.65,2583.12,2807.35,599.92,602.05,59.80,0000 0000 0000 0000 000000
2015-10-15 06:30:52,0.02,2.55,0.00,20.70,26.39,30.09,14.78,48.28,1019.06,2038.89,2695.03,2582.99,2807.01,600.09,602.28,59.85,0000 0000 0000 0000 000000
2015-10-15 06:35:54,0.04,2.55,0.00,20.71,26.40,30.05,14.73,48.15,1019.07,2038.88,2694.46,2582.74,2806.66,599.87,602.04,59.90,0000 0000 0000 0000 000000
2015-10-15 06:40:55,0.04,2.56,0.00,20.72,26.40,30.08,14.76,48.23,1019.07,2038.93,2694.01,2582.08,2806.06,599.93,602.06,59.95,0000 0000 0000 0000 000000
2015-10-15 06:45:56,0.01,2.56,0.00,20.72,26.40,30.09,14.80,48.26,1019.07,2038.94,2693.51,2581.99,2806.00,599.89,602.00,60.00,0000 0000 0000 0000 000000
2015-10-15 06:50:58,0.02,2.56,0.00,20.72,26.40,30.09,14.79,48.35,1019.06,2038.95,2693.02,2581.78,2805.56,600.11,602.34,60.06,0000 0000 0000 0000 000000
2015-10-15 06:55:59,0.04,2.56,0.00,20.69,26.40,30.07,14.76,48.30,1019.06,2038.90,2692.34,2581.06,2805.01,599.86,602.19,60.11,0000 0000 0000 0000 000000
2015-10-15 07:00:59,0.03,1.11,0.00,20.67,26.41,30.06,13.02,42.08,1019.07,2040.10,3207.90,2994.45,3258.41,532.73,536.37,0.02,0000 0000 0000 0000 000002
2015-10-15 07:06:01,0.03,0.00,0.00,20.67,26.42,30.02,14.80,47.40,1019.08,2041.00,3597.60,3308.28,3604.10,599.94,602.18,0.04,0000 0000 0000 0000 000000
2015-10-15 07:11:02,0.03,0.00,0.00,20.67,26.42,30.00,14.73,47.42,1019.14,2040.99,3595.69,3307.34,3603.02,599.70,601.97,0.09,0000 0000 0000 0000 000000
2015-10-15 07:16:04,0.04,0.00,0.00,20.67,26.42,30.01,14.75,47.48,1019.11,2040.99,3594.58,3306.93,3602.13,599.99,602.24,0.14,0000 0000 0000 0000 000000
2015-10-15 07:21:05,0.04,0.00,0.00,20.68,26.42,30.03,14.78,47.43,1019.09,2040.99,3593.59,3306.18,3601.45,600.26,602.49,0.19,0000 0000 0000 0000 000000
2015-10-15 07:26:06,0.04,0.01,0.00,20.64,26.42,30.05,14.73,47.43,1019.09,2040.99,3592.49,3305.58,3600.46,599.79,602.06,0.24,0000 0000 0000 0000 000000
2015-10-15 07:31:07,0.02,0.01,0.00,20.64,26.41,30.05,14.70,47.54,1019.10,2040.99,3591.86,3305.01,3599.99,599.44,601.68,0.29,0000 0000 0000 0000 000000
2015-10-15 07:36:08,0.02,0.01,0.00,20.64,26.41,30.03,14.77,47.54,1019.08,2040.99,3591.07,3304.99,3599.40,599.91,602.27,0.34,0000 0000 0000 0000 000000
2015-10-15 07:41:10,0.03,0.01,0.00,20.65,26.41,30.05,14.81,47.46,1019.07,2040.99,3590.50,3304.36,3598.99,599.91,602.21,0.39,0000 0000 0000 0000 000000
2015-10-15 07:46:11,0.02,0.01,0.00,20.65,26.40,30.02,14.76,47.40,1019.17,2040.99,3589.88,3304.00,3598.32,599.93,602.23,0.44,0000 0000 0000 0000 000000
2015-10-15 07:51:12,0.02,0.01,0.00,20.62,26.40,30.00,14.83,47.33,1019.35,2040.99,3589.06,3303.67,3597.99,599.89,602.41,0.49,0000 0000 0000 0000 000000
2015-10-15 07:56:14,0.03,0.01,0.00,20.62,26.40,30.03,14.81,47.37,1019.42,2040.99,3588.69,3303.05,3597.44,600.27,602.71,0.54,0000 0000 0000 0000 000000
2015-10-15 08:01:15,0.01,0.02,0.00,20.62,26.40,30.01,14.80,47.38,1019.41,2040.99,3587.93,3302.90,3596.92,600.10,602.64,0.59,0000 0000 0000 0000 000000
2015-10-15 08:06:16,0.04,0.02,0.00,20.62,26.40,29.99,14.87,47.28,1019.47,2040.99,3587.11,3302.16,3596.16,600.53,603.12,0.64,0000 0000 0000 0000 000000
2015-10-15 08:11:18,0.01,0.02,0.00,20.62,26.40,29.97,14.79,47.36,1019.43,2040.99,3586.53,3301.99,3595.96,600.03,602.46,0.69,0000 0000 0000 0000 000000
2015-10-15 08:16:19,0.03,0.02,0.00,20.59,26.40,29.98,14.80,47.42,1019.45,2040.99,3585.91,3301.52,3595.23,600.15,602.83,0.74,0000 0000 0000 0000 000000
2015-10-15 08:21:20,0.01,0.02,0.00,20.59,26.40,29.98,14.77,47.47,1019.51,2040.99,3585.09,3301.02,3594.96,599.83,602.47,0.79,0000 0000 0000 0000 000000
2015-10-15 08:26:21,0.03,0.02,0.00,20.59,26.40,29.96,14.81,47.61,1019.46,2040.99,3584.55,3300.89,3594.29,599.62,602.23,0.84,0000 0000 0000 0000 000000
2015-10-15 08:31:23,0.02,0.02,0.00,20.59,26.39,29.98,14.75,47.53,1019.45,2040.99,3584.02,3300.21,3594.00,599.92,602.51,0.89,0000 0000 0000 0000 000000
2015-10-15 08:36:24,0.01,0.02,0.00,20.60,26.39,29.97,14.80,47.46,1019.48,2040.99,3583.75,3300.01,3593.81,600.41,603.07,0.94,0000 0000 0000 0000 000000
2015-10-15 08:41:25,0.02,0.03,0.00,20.60,26.38,29.98,14.85,47.55,1019.51,2040.99,3583.04,3299.88,3593.06,600.44,603.07,0.99,0000 0000 0000 0000 000000
2015-10-15 08:46:27,0.03,0.03,0.00,20.60,26.37,29.96,14.79,47.64,1019.53,2040.99,3582.74,3299.23,3592.91,600.10,602.65,1.04,0000 0000 0000 0000 000000
2015-10-15 08:51:28,0.02,0.03,0.00,20.61,26.37,29.98,14.80,47.61,1019.55,2040.99,3582.01,3298.96,3592.09,600.12,602.73,1.09,0000 0000 0000 0000 000000
2015-10-15 08:56:29,0.03,0.03,0.00,20.62,26.37,29.98,14.75,47.65,1019.55,2041.00,3581.27,3298.30,3591.84,600.00,602.55,1.14,0000 0000 0000 0000 000000
2015-10-15 09:01:30,0.01,0.03,0.00,20.59,26.37,29.99,14.79,47.62,1019.55,2041.00,3580.73,3298.00,3591.07,600.02,602.73,1.19,0000 0000 0000 0000 000000
2015-10-15 09:06:31,0.03,0.03,0.00,20.58,26.37,30.03,14.84,47.62,1019.56,2041.00,3580.02,3297.57,3590.84,600.00,602.63,1.24,0000 0000 0000 0000 000000
2015-10-15 09:11:33,0.02,0.03,0.00,20.58,26.37,30.01,14.76,47.80,1019.58,2041.00,3579.32,3297.02,3590.08,600.10,602.77,1.29,0000 0000 0000 0000 000000
2015-10-15 09:16:34,0.01,0.03,0.00,20.59,26.37,29.95,14.73,47.75,1019.58,2041.00,3578.76,3296.88,3589.89,599.86,602.44,1.34,0000 0000 0000 0000 000000
2015-10-15 09:21:35,0.04,0.04,0.00,20.59,26.37,29.98,14.75,47.75,1019.57,2041.00,3578.03,3296.14,3589.13,599.99,602.71,1.39,0000 0000 0000 0000 000000
2015-10-15 09:26:36,0.01,0.04,0.00,20.60,26.37,29.96,14.81,47.62,1019.61,2041.00,3577.40,3295.99,3588.91,599.99,602.66,1.44,0000 0000 0000 0000 000000
2015-10-15 09:31:38,0.04,0.04,0.00,20.58,26.36,29.96,14.81,47.64,1019.69,2041.00,3576.71,3295.46,3588.09,599.84,602.67,1.49,0000 0000 0000 0000 000000
2015-10-15 09:36:39,0.01,0.04,0.00,20.57,26.35,29.97,14.84,47.77,1019.71,2041.00,3576.01,3295.00,3587.81,599.93,602.75,1.54,0000 0000 0000 0000 000000
2015-10-15 09:41:40,0.04,0.04,0.00,20.57,26.35,29.97,14.81,47.76,1019.79,2041.00,3575.22,3294.33,3587.06,599.96,602.76,1.59,0000 0000 0000 0000 000000
2015-10-15 09:46:42,0.02,0.04,0.00,20.57,26.35,29.99,14.78,47.74,1019.89,2041.01,3574.57,3294.00,3586.76,599.87,602.73,1.65,0000 0000 0000 0000 000000
2015-10-15 09:51:43,0.03,0.05,0.00,20.58,26.35,29.94,14.81,47.90,1019.99,2041.00,3573.85,3293.51,3586.05,600.25,603.16,1.70,0000 0000 0000 0000 000000
2015-10-15 09:56:44,0.02,0.05,0.00,20.59,26.35,29.97,14.78,47.73,1020.01,2041.00,3573.05,3293.00,3585.60,599.90,602.84,1.75,0000 0000 0000 0000 000000
2015-10-15 10:01:45,0.03,0.05,0.00,20.59,26.35,29.95,14.88,47.75,1020.03,2041.01,3572.38,3292.61,3585.02,600.13,603.11,1.80,0000 0000 0000 0000 000000
2015-10-15 10:06:47,0.02,0.05,0.00,20.57,26.35,29.96,14.87,47.68,1020.03,2041.00,3571.74,3292.02,3584.47,600.32,603.33,1.85,0000 0000 0000 0000 000000
2015-10-15 10:11:48,0.01,0.05,0.00,20.54,26.34,29.94,14.84,47.83,1020.03,2041.00,3570.98,3291.76,3584.00,600.24,603.35,1.90,0000 0000 0000 0000 000000
2015-10-15 10:16:49,0.04,0.05,0.00,20.55,26.33,30.00,14.87,47.81,1020.03,2041.00,3570.13,3291.06,3583.52,600.32,603.37,1.95,0000 0000 0000 0000 000000
2015-10-15 10:21:51,0.01,0.05,0.00,20.56,26.32,29.95,14.78,47.92,1020.03,2041.01,3569.64,3290.94,3583.01,599.87,602.88,2.00,0000 0000 0000 0000 000000
2015-10-15 10:26:52,0.03,0.06,0.00,20.57,26.32,29.94,14.83,47.92,1020.03,2041.00,3568.99,3290.14,3582.80,599.82,602.81,2.05,0000 0000 0000 0000 000000
2015-10-15 10:31:53,0.02,0.06,0.00,20.57,26.32,29.97,14.82,47.91,1020.03,2041.02,3568.18,3289.98,3582.06,600.29,603.29,2.10,0000 0000 0000 0000 000000
2015-10-15 10:36:55,0.02,0.06,0.00,20.57,26.32,29.94,14.80,47.94,1020.04,2041.03,3567.73,3289.40,3581.91,600.00,602.90,2.15,0000 0000 0000 0000 000000
2015-10-15 10:41:56,0.02,0.06,0.00,20.59,26.32,29.93,14.78,47.86,1020.04,2041.02,3566.99,3289.01,3581.12,599.86,602.81,2.20,0000 0000 0000 0000 000000
2015-10-15 10:46:57,0.03,0.06,0.00,20.55,26.32,29.95,14.80,47.97,1020.04,2041.02,3566.12,3288.55,3580.88,599.85,602.85,2.25,0000 0000 0000 0000 000000
2015-10-15 10:51:59,0.02,0.06,0.00,20.54,26.31,29.95,14.78,47.98,1020.04,2041.02,3565.58,3288.02,3580.12,599.47,602.59,2.30,0000 0000 0000 0000 000000
2015-10-15 10:57:00,0.01,0.06,0.00,20.54,26.30,29.95,14.80,47.94,1020.04,2041.05,3564.99,3287.96,3579.99,599.77,602.94,2.35,0000 0000 0000 0000 000000
2015-10-15 11:02:01,0.05,0.07,0.00,20.54,26.30,29.95,14.79,47.88,1020.04,2041.05,3564.23,3287.30,3579.34,600.24,603.30,2.40,0000 0000 0000 0000 000000
2015-10-15 11:07:02,0.01,0.07,0.00,20.54,26.30,29.95,14.82,47.92,1020.04,2041.03,3563.76,3286.99,3578.99,600.04,603.08,2.45,0000 0000 0000 0000 000000
2015-10-15 11:12:04,0.03,0.07,0.00,20.54,26.30,29.94,14.80,47.88,1020.05,2041.06,3563.05,3286.59,3578.47,600.09,603.14,2.50,0000 0000 0000 0000 000000
2015-10-15 11:17:05,0.02,0.07,0.00,20.54,26.30,29.94,14.84,47.96,1020.04,2041.06,3562.39,3286.02,3578.00,600.32,603.44,2.55,0000 0000 0000 0000 000000
2015-10-15 11:22:06,0.02,0.07,0.00,20.56,26.30,29.91,14.76,47.86,1020.04,2041.09,3561.91,3285.91,3577.55,599.77,602.77,2.60,0000 0000 0000 0000 000000
2015-10-15 11:27:08,0.03,0.07,0.00,20.53,26.30,29.93,14.88,47.73,1020.04,2041.13,3561.16,3285.33,3577.02,600.14,603.15,2.65,0000 0000 0000 0000 000000
2015-10-15 11:32:09,0.01,0.07,0.00,20.52,26.30,29.91,14.75,47.73,1020.05,2041.20,3560.86,3285.01,3576.75,600.09,603.05,2.70,0000 0000 0000 0000 000000
2015-10-15 11:37:10,0.03,0.07,0.00,20.52,26.30,29.92,14.78,47.69,1020.05,2041.21,3560.10,3284.87,3576.08,599.93,602.98,2.75,0000 0000 0000 0000 000000
2015-10-15 11:42:12,0.04,0.08,0.00,20.52,26.30,29.91,14.77,47.72,1020.16,2041.38,3559.73,3284.14,3575.98,599.89,603.04,2.80,0000 0000 0000 0000 000000
2015-10-15 11:47:13,-0.01,0.08,0.00,20.52,26.30,29.92,14.79,47.60,1020.34,2041.17,3559.02,3284.00,3575.28,600.17,603.41,2.85,0000 0000 0000 0000 000000
2015-10-15 11:52:14,0.03,0.08,0.00,20.54,26.30,29.90,14.90,47.57,1020.37,2041.20,3558.48,3283.64,3575.00,599.93,603.17,2.90,0000 0000 0000 0000 000000
2015-10-15 11:57:15,0.02,0.08,0.00,20.55,26.29,29.95,14.86,47.61,1020.44,2041.16,3557.95,3283.02,3574.37,599.98,603.31,2.95,0000 0000 0000 0000 000000
2015-10-15 12:02:16,0.03,0.08,0.00,20.53,26.28,29.94,14.70,47.64,1020.51,2041.29,3557.21,3282.97,3574.00,600.07,603.43,3.00,0000 0000 0000 0000 000000
2015-10-15 12:07:17,0.02,0.08,0.00,20.52,26.28,29.94,14.82,47.66,1020.48,2041.33,3556.90,3282.37,3573.81,599.84,603.20,3.05,0000 0000 0000 0000 000000
2015-10-15 12:12:19,0.06,0.09,0.00,20.52,26.28,29.92,14.75,47.67,1020.42,2041.67,3556.14,3282.02,3573.11,599.92,603.17,3.10,0000 0000 0000 0000 000000
2015-10-15 12:17:20,-0.01,0.09,0.00,20.52,26.27,29.90,14.83,47.58,1020.45,2041.58,3555.75,3281.94,3572.97,600.16,603.54,3.15,0000 0000 0000 0000 000000
2015-10-15 12:22:21,0.02,0.09,0.00,20.53,26.27,29.90,14.73,47.63,1020.47,2041.42,3555.03,3281.17,3572.17,600.09,603.39,3.20,0000 0000 0000 0000 000000
2015-10-15 12:27:22,0.03,0.09,0.00,20.50,26.27,29.92,14.80,47.67,1020.45,2041.51,3554.42,3280.99,3571.99,599.91,603.29,3.25,0000 0000 0000 0000 000000
2015-10-15 12:32:23,0.02,0.09,0.00,20.49,26.27,29.92,14.87,47.91,1020.34,2041.63,3553.99,3280.71,3571.50,600.16,603.38,3.30,0000 0000 0000 0000 000000
2015-10-15 12:37:24,0.05,0.09,0.00,20.51,26.27,29.92,14.75,47.71,1020.42,2041.83,3553.42,3280.14,3571.02,599.67,603.01,3.35,0000 0000 0000 0000 000000
2015-10-15 12:42:26,-0.01,0.09,0.00,20.52,26.27,29.90,14.80,47.68,1020.38,2041.57,3552.85,3279.97,3570.57,599.94,603.24,3.40,0000 0000 0000 0000 000000
2015-10-15 12:47:27,0.04,0.09,0.00,20.54,26.27,29.90,14.77,47.63,1020.39,2041.68,3552.08,3279.63,3570.03,599.88,603.14,3.45,0000 0000 0000 0000 000000
2015-10-15 12:52:28,0.00,0.09,0.00,20.53,26.27,29.92,14.82,47.70,1020.36,2041.56,3551.67,3279.03,3569.73,600.02,603.24,3.50,0000 0000 0000 0000 000000
2015-10-15 12:57:30,0.03,0.10,0.00,20.51,26.27,29.95,14.78,47.51,1020.31,2041.47,3550.98,3278.67,3569.05,599.76,603.00,3.55,0000 0000 0000 0000 000000